Regional Weather Roundup
Issued by NWS Sioux Falls, SD

Home | Current Version | Previous Version | Text Only | Print | Product List | Glossary Off
Versions: 1 2 3 4 5 6 7 8 9 10 11 12 13 14 15 16 17 18 19 20 21 22 23 24 25 26 27 28 29 30 31 32 33 34 35 36 37 38 39 40 41 42 43 44 45 46 47 48 49 50

000
ASUS43 KFSD 021302
RWRFSD

WEATHER ROUNDUP FOR SE SOUTH DAKOTA/SW MINNESOTA/NW IOWA
NATIONAL WEATHER SERVICE SIOUX FALLS SD
800 AM CDT THU OCT 02 2014

NOTE: "FAIR" INDICATES FEW OR NO CLOUDS BELOW 12,000 FEET WITH NO
SIGNIFICANT WEATHER AND OR OBSTRUCTIONS TO VISIBILITY.


SDZ038>040-050-052>070-021400-
SOUTHEAST SOUTH DAKOTA

CITY           SKY/WX    TMP DP  RH WIND       PRES   REMARKS
CHAMBERLAIN    CLOUDY    49  47  93 W6        29.94R
HURON          CLOUDY    51  49  92 W3        29.89F
MADISON        LGT RAIN  50  50 100 NW6       29.90R
MITCHELL       LGT RAIN  53  51  93 W3        29.91F
SIOUX FALLS    RAIN      54  51  90 W3        29.90R FOG
WINNER         FAIR      48  45  89 W7        29.95S FOG
YANKTON        CLOUDY    54  52  94 NW12      29.91S
$$

MNZ071-072-080-081-089-090-097-098-021400-
SOUTHWEST MINNESOTA

CITY           SKY/WX    TMP DP  RH WIND       PRES   REMARKS
FAIRMONT       CLOUDY    57  55  94 N5        29.84S VSB 1/4
JACKSON        CLOUDY    52  50  93 N6        29.85S
LUVERNE        RAIN      54  50  87 NW3       29.89R
MARSHALL       CLOUDY    50  46  87 NW5       29.86R
MONTEVIDEO     CLOUDY    50  48  93 N5        29.87R
PIPESTONE      LGT RAIN  52  48  87 CALM      29.88R
REDWOOD FALLS  CLOUDY    51  49  92 CALM      29.86R
TRACY          CLOUDY    53  50  89 NW7       29.87R
WINDOM         MOCLDY    52  50  93 N3        29.86R
WORTHINGTON    CLOUDY    52  48  87 N8        29.87R
$$

IAZ001>003-012>014-020>022-031-032-NEZ013-014-SDZ071-021400-
NORTHWEST IOWA

CITY           SKY/WX    TMP DP  RH WIND       PRES   REMARKS
CHEROKEE       CLOUDY    54  54 100 NW13G25   29.85R
DENISON        FOG       63  63 100 CALM      29.80F VSB 1/4
ESTHERVILLE    FOG       57  57 100 N10       29.83S VSB 1/4
LE MARS        CLOUDY    54  54 100 N8        29.87S
ORANGE CITY    LGT RAIN  55  52  88 N12       29.87F
SHELDON        HVY RAIN  52  52 100 NW12      29.87F
SIOUX CITY     LGT RAIN  55  53  93 N15G23    29.85F
SPENCER        LGT RAIN  57  56  96 NE9       29.82F VSB 3/4
STORM LAKE     FOG       59  59 100 S5        29.83S VSB<1/4
$$

ABBREVIATIONS USED IN REMARKS
   TC - TEMPERATURE IN CELSIUS
  WCI - WIND CHILL INDEX
   HX - HEAT INDEX
  VSB - VISIBILITY



USA.gov is the U.S. government's official web portal to all federal, state and local government web resources and services.